COSMOS 2251 DEB, 33986

Orbit data source: Space-Track

COSMOS 2251 DEB, 33986 is space debris in LEO originally from a launch on Wed, 16 Jun 1993 UTC launched from the Plesetsk Missile And Space Complex (PKMTR). The debris from Iridium 33, an American commercial communications satellite, has been tracked extensively since its accidental collision with the defunct Russian satellite Cosmos 2251 in 2009. This event, occurring at high speed in low Earth orbit (LEO), generated thousands of pieces of space debris, significantly increasing the risk of further collisions. The Iridium 33 debris cloud has impacted space traffic management and orbital debris mitigation strategies, making it a subject of ongoing study in space situational awareness.

Loading next visibility...
Identifier
33986, 1993-036FV
Orbit
LEO
Country
Flag of CISCIS
Related business
Manufacturer
Unknown
Mission
Spacecraft
Bus & Motor
Unknown
Mass
Unknown
Launch date (UTC)
1993-06-16 (33 years ago)
Launch vehicle
Unknown
Launch site
Plesetsk Missile And Space Complex (PKMTR)
Object type
Payload
Rocket body
Debris
Shape & HBR
Unknown shape, 0.1 m
Radar Cross Section
Small (<0.1 m²)

Expand to show TLE details & history
Last TLE update: 9 hours ago

TLE from 9 hours ago
0 COSMOS 2251 DEB
1 33986U 93036FV  26036.91169201  .00004227  00000-0  12426-2 0  9998
2 33986  74.0354 200.1671 0041756 262.5723 252.1578 14.43536276888242
Epoch: 2026-02-05T21:52Z
TLE epoch observation values (Epoch: 2026-02-05T21:52:50.189Z)
Latitude
24.69861°
Longitude
-91.61902°
Altitude
758.755 km
Speed
7.473 km/s
True Right ascension
00h 50m 35s
True Declination
24° 34' 06"
Sunlit
Object was in daylight at epoch
Visualization orbit readout
Latitude
Unknown
Longitude
Unknown
Altitude
Unknown
Speed
Unknown
Apparent Right ascension
Unknown
Apparent Declination
Unknown
Sunlit
N/A
Visualization observer readout
Local Sidereal Time
09:24:15
Azimuth
Unknown
Elevation
Unknown
Doppler factor
Unknown
Orbital elements
Apogee altitude
774.195 km
Perigee altitude
714.713 km
Semi-major axis
7,122.591 km
Eccentricity
0.00418
Inclination
74.0354°
RAAN
200.1671°
Arg. of periapsis
262.5723°
True anomaly
251.70306°
Mean anomaly
252.1578°
Eccentric anomaly
251.93036°
Mean motion
3.61066 °/min
Orbital period
99.7 mins
BSTAR
0.0012426
Loading maneuver chart data...
Computing Atmospheric mass density...

Documentation

Showing up to 5 results
|